Weather Roundup
Issued by NWS Corpus Christi, TX

Home | Current Version | Previous Version | Text Only | Print | Product List | Glossary On
Versions: 1 2 3 4 5 6 7 8 9 10 11 12 13 14 15 16 17 18 19 20 21 22 23 24 25 26 27 28 29 30 31 32 33 34 35 36 37 38 39 40 41 42 43 44 45 46 47 48 49 50
000
ASUS44 KCRP 201910
HRRCRP

SOUTH TEXAS REGIONAL WEATHER ROUNDUP
NATIONAL WEATHER SERVICE CORPUS CHRISTI TX
100 PM CST SAT DEC 20 2014


TXZ229>244-202000-
...CORPUS CHRISTI AREA OBSERVATIONS...

CITY           SKY/WX    TMP DP  RH WIND       PRES   REMARKS
CORPUS CHRISTI DRIZZLE   56  50  80 N6        30.18F
NAS CORPUS CHR CLOUDY    56  52  86 N12       30.17F
ROCKPORT       CLOUDY    56  49  77 N9        30.17F
KINGSVILLE NAS CLOUDY    56  51  84 N8        30.19F
ALICE          CLOUDY    55  48  77 VRB3      30.18F
FALFURRIAS     CLOUDY    53  49  86 N6        30.19F
$$

...VICTORIA AREA OBSERVATIONS...

CITY           SKY/WX    TMP DP  RH WIND       PRES   REMARKS
VICTORIA       CLOUDY    57  49  74 N6        30.18F
BEEVILLE       CLOUDY    53  48  82 NE6       30.18F
PLEASANTON     CLOUDY    55  45  68 N6        30.20F
SAN ANTONIO    MOSUNNY   56  44  64 N12       30.17F
$$

...LAREDO AREA OBSERVATIONS...

CITY           SKY/WX    TMP DP  RH WIND       PRES   REMARKS
LAREDO         CLOUDY    54  46  76 NE9       30.20
COTULLA        CLOUDY    54  45  71 N5        30.19F
DEL RIO        CLOUDY    55  46  71 SE8       30.15F
MCALLEN        CLOUDY    58  53  84 N9        30.16F
HEBBRONVILLE   CLOUDY    51  46  84 N5        30.19F FOG
$$

...OTHER TEXAS OBSERVATIONS...

CITY           SKY/WX    TMP DP  RH WIND       PRES   REMARKS
BROWNSVILLE    CLOUDY    61  54  77 N16       30.14F
HOUSTON        CLOUDY    54  49  83 N8        30.18S
COL. STATION   CLOUDY    52  48  86 NE8       30.20F
AUSTIN         CLOUDY    53  46  77 N7        30.20F
WACO           CLOUDY    50  44  80 N7        30.23F
FORT WORTH     DRIZZLE   46  43  89 NE5       30.22F FOG
WICHITA FALLS  CLOUDY    45  40  82 S10       30.19F
LUBBOCK        CLOUDY    46  37  71 S10       30.09F
EL PASO        MOSUNNY   51  26  37 VRB3      30.14F
$$

...MARINE OBSERVATIONS...

STATION/POSITION TIME  SKY/WX   TEMP    WIND        PRES    VSBY  WAVE   SWELL
                                AIR SEA DIR/SP/G                  HT/PER HT/PER
                 (UTC)          (F)     (DEG/KT/KT) (MB)    (MI)  (FT/S) (FT/S)
PORT ARANSAS     1900            54 63  360/ 11/ 13 1021.8F
BUOY 90 E PORT A 1900            60 72   20/ 16/ 19 1020.2F         6/ 6
BUOY 45 SE BAFFI 1900            61 73  350/ 16/ 19 1020.2F         5/ 7   2/12
BUOY 200 E PT IS 1900            70 73   10/ 16/ 17 1016.9F         5/ 7
BUOY 15 E GALVES 1900            55 64   40/ 14/ 16 1020.3F         3/ 6   2/ 6
$$


USA.gov is the U.S. government's official web portal to all federal, state and local government web resources and services.